Yankton, SD

12:15 PM CST on December 06, 2019 (GMT -0600)
Gurney Municipal

Weather History for KYKN - October, 2019

Change the Weather History Date:

Thursday, October 17, 2019

  Actual Average Record
Temperature  
Mean Temperature 52 °F -  
Max Temperature 70 °F 62 °F 87 °F (1991)
Min Temperature 35 °F 36 °F 19 °F (1976)
Degree Days  
Heating Degree Days 13    
Growing Degree Days 2 (Base 50)    
Moisture  
Dew Point 39 °F    
Average Humidity 71    
Maximum Humidity 100    
Minimum Humidity 36    
Precipitation  
Precipitation 0.00 in - - ()
Sea Level Pressure  
Sea Level Pressure 29.86 in    
Wind  
Wind Speed 9 mph (ESE)    
Max Wind Speed 18 mph    
Max Gust Speed 24 mph    
Visibility 10 miles    
Events Rain    
Averages and records for this station are not official NWS values.
T = Trace of Precipitation, MM = Missing Value Source: NWS Daily Summary

Daily Weather History Graph

Daily Weather History Graph

Search for Another Location

Airport or City:

Astronomy

Oct. 17, 2019 Rise Set
Actual Time 7:45 AM CDT 6:44 PM CDT
Civil Twilight 7:16 AM CDT 7:12 PM CDT
Nautical Twilight 6:43 AM CDT 7:45 PM CDT
Astronomical Twilight 6:10 AM CDT 8:18 PM CDT
Moon 9:11 PM CDT (10/17) 11:22 AM CDT (10/17)
Length of Visible Light 11h 56m
Length of Day
10h 58m
Waning Gibbous, 86% of the Moon is Illuminated
Oct 17
Waning Gibbous
Oct 21
Last Quarter
Oct 27
New
Nov 4
First Quarter
Nov 12
Full

Hourly Weather History & Observations

Time (CDT) Temp. Windchill Dew Point Humidity Pressure Visibility Wind Dir Wind Speed Gust Speed Precip Events Conditions
12:56 AM 39.0 °F 34.8 °F 35.1 °F 86% 30.02 in 6.0 mi East 5.8 mph - 0.00 in Rain Light Rain
1:56 AM 37.9 °F 33.5 °F 35.1 °F 89% 30.00 in 10.0 mi East 5.8 mph - 0.00 in   Clear
2:56 AM 37.9 °F 33.5 °F 35.1 °F 89% 29.98 in 10.0 mi ESE 5.8 mph - N/A   Clear
3:56 AM 37.0 °F 31.6 °F 34.0 °F 89% 29.97 in 10.0 mi East 6.9 mph - N/A   Clear
4:56 AM 37.0 °F 30.4 °F 34.0 °F 89% 29.95 in 10.0 mi ESE 9.2 mph - N/A   Clear
5:56 AM 35.1 °F 29.3 °F 34.0 °F 96% 29.96 in 10.0 mi East 6.9 mph - N/A   Clear
6:56 AM 35.1 °F 29.3 °F 34.0 °F 96% 29.95 in 10.0 mi East 6.9 mph - N/A   Clear
7:56 AM 35.1 °F 28.6 °F 34.0 °F 96% 29.96 in 10.0 mi East 8.1 mph - N/A   Clear
8:26 AM 35.6 °F 29.9 °F 33.8 °F 93% 29.89 in 2.0 mi East 6.9 mph - 0.00 in   Clear
8:35 AM 35.6 °F 29.9 °F 35.6 °F 100% 29.89 in 10.0 mi East 6.9 mph - 0.00 in   Clear
8:56 AM 37.9 °F 33.5 °F 35.1 °F 89% 29.96 in 10.0 mi ESE 5.8 mph - 0.00 in   Clear
9:56 AM 44.1 °F 39.5 °F 37.9 °F 79% 29.94 in 10.0 mi ESE 8.1 mph - N/A   Clear
10:56 AM 50.0 °F - 39.9 °F 68% 29.92 in 10.0 mi SE 9.2 mph - N/A   Clear
12:56 PM 62.1 °F - 41.0 °F 46% 29.87 in 10.0 mi SE 15.0 mph - N/A   Clear
1:56 PM 64.9 °F - 41.0 °F 42% 29.83 in 10.0 mi SE 13.8 mph - N/A   Clear
2:56 PM 68.0 °F - 41.0 °F 37% 29.79 in 10.0 mi ESE 12.7 mph - N/A   Clear
3:56 PM 69.1 °F - 41.0 °F 36% 29.77 in 10.0 mi ESE 17.3 mph - N/A   Clear
4:56 PM 68.0 °F - 41.0 °F 37% 29.75 in 10.0 mi SE 17.3 mph 24.2 mph N/A   Clear
5:56 PM 64.9 °F - 42.1 °F 43% 29.76 in 10.0 mi SE 18.4 mph 23.0 mph N/A   Clear
6:56 PM 60.1 °F - 44.1 °F 55% 29.75 in 10.0 mi ESE 12.7 mph - N/A   Clear
7:56 PM 57.9 °F - 44.1 °F 60% 29.75 in 10.0 mi ESE 13.8 mph - N/A   Clear
8:56 PM 57.0 °F - 44.1 °F 62% 29.74 in 10.0 mi SE 11.5 mph - N/A   Clear
9:56 PM 57.0 °F - 44.1 °F 62% 29.73 in 10.0 mi SE 15.0 mph - N/A   Clear
10:56 PM 55.0 °F - 44.1 °F 67% 29.72 in 10.0 mi SE 11.5 mph - N/A   Clear
11:56 PM 54.0 °F - 44.1 °F 69% 29.70 in 10.0 mi SSE 13.8 mph - N/A   Clear